CZ-6A DEB, 56676

Orbit data source: Space-Track

CZ-6A DEB, 56676 is space debris in SSO originally from a launch on Fri, 11 Nov 2022 UTC launched from the Taiyaun Space Center, China (TSC). Debris objects in space refer to the collection of defunct objects orbiting the Earth. Examples of debris include non-operational satellites, rocket bodies, and fragments generated from explosions, collisions, or faulty payload assembly.

Loading next visibility...
Identifier
56676, 2022-151AHC
Orbit
SSO
Country
Flag of CNCN / PRC
Related business
Manufacturer
SAST
Mission
Spacecraft
Bus & Motor
Unknown
Mass
Unknown
Launch date (UTC)
2022-11-11 (3 years ago)
Launch vehicle
Unknown
Launch site
Taiyaun Space Center, China (TSC)
Object type
Payload
Rocket body
Debris
Shape & HBR
Unknown shape, 0.1 m
Radar Cross Section
Small (<0.1 m²)

Expand to show TLE details & history
Last TLE update: 1 day ago

TLE from 1 day ago
0 CZ-6A DEB
1 56676U 22151AHC 25348.49015323  .00000235  00000-0  15698-3 0  9992
2 56676  98.8516 349.1426 0045438 140.1417 220.3105 14.09745891135808
Epoch: 2025-12-14T11:45Z
TLE epoch observation values (Epoch: 2025-12-14T11:45:49.239Z)
Latitude
0.00002°
Longitude
89.28511°
Altitude
888.285 km
Speed
7.395 km/s
True Right ascension
23h 16m 34s
True Declination
0° 00' 00"
Sunlit
Object was in daylight at epoch
Visualization orbit readout
Latitude
Unknown
Longitude
Unknown
Altitude
Unknown
Speed
Unknown
Apparent Right ascension
Unknown
Apparent Declination
Unknown
Sunlit
N/A
Visualization observer readout
Local Sidereal Time
15:07:29
Azimuth
Unknown
Elevation
Unknown
Doppler factor
Unknown
Orbital elements
Apogee altitude
890.297 km
Perigee altitude
824.544 km
Semi-major axis
7,235.557 km
Eccentricity
0.00454
Inclination
98.8516°
RAAN
349.1426°
Arg. of periapsis
140.1417°
True anomaly
219.97511°
Mean anomaly
220.3105°
Eccentric anomaly
220.14266°
Mean motion
3.52643 °/min
Orbital period
102.09 mins
BSTAR
0.00015698
Loading maneuver chart data...
Computing Atmospheric mass density...
Loading historical data...
Loading historical data...
Loading historical data...
Loading historical data...
Loading historical data...
Loading historical data...
Loading historical data...

Documentation

Showing up to 5 results
|